Showing default

CBERS-4, 40336

Orbit data source: Space-Track

CBERS-4, 40336 is a Chinese payload satellite in SSO that was launched on Sun, 07 Dec 2014 UTC via a CHANG ZHENG 4B launch vehicle from the Taiyaun Space Center, China (TSC). Payload-class satellites include a variety of spacecraft equipped with specific instruments for various scientific and technological missions. These include communications satellites like Starlink; space stations such as the ISS; scientific satellites like the Hubble; Earth observation satellites from companies like Planet Labs, Umbra, and HawkEye 360; GPS; miniature CubeSats for education and research; and military/defense satellites.

Loading next visibility...
Identifier
40336, 2014-079A
Orbit
SSO
Country
Flag of CNCN / PRC
Related business
Manufacturer
CAST/INPE
Mission
Operational Civil Imaging
Bus & Motor
ZY, AOCS 20N
Mass
2,100 kg wet, ~1,900 kg dry
Launch date (UTC)
2014-12-07 (12 years ago)
Launch vehicle
CHANG ZHENG 4B
Launch site
Taiyaun Space Center, China (TSC)
Object type
Payload
Rocket body
Debris
Shape & HBR
Box + 1 Pan, 4.5 m
Radar Cross Section
22.196 m², Large (>1 m²)

Expand to show TLE details & history
Last TLE update: 23 hours ago

TLE from 23 hours ago
0 CBERS-4
1 40336U 14079A   26172.49813473  .00000295  00000-0  11719-3 0  9992
2 40336  98.3525 229.1950 0001695  60.3510 299.7845 14.35510713604570
Epoch: 2026-06-21T11:57Z
TLE epoch observation values (Epoch: 2026-06-21T11:57:18.840Z)
Latitude
-0.00002°
Longitude
140.16896°
Altitude
775.715 km
Speed
7.466 km/s
True Right ascension
15h 16m 46s
True Declination
0° 00' 00"
Sunlit
Object was in full shadow at epoch
Visualization orbit readout
Latitude
Unknown
Longitude
Unknown
Altitude
Unknown
Speed
Unknown
Apparent Right ascension
Unknown
Apparent Declination
Unknown
Sunlit
N/A
Visualization observer readout
Local Sidereal Time
21:37:11
Azimuth
Unknown
Elevation
Unknown
Doppler factor
Unknown
Orbital elements
Apogee altitude
771.702 km
Perigee altitude
769.279 km
Semi-major axis
7,148.628 km
Eccentricity
0.00017
Inclination
98.3525°
RAAN
229.195°
Arg. of periapsis
60.351°
True anomaly
299.76764°
Mean anomaly
299.7845°
Eccentric anomaly
299.77607°
Mean motion
3.59095 °/min
Orbital period
100.25 mins
BSTAR
0.00011719
Loading maneuver chart data...
Computing Atmospheric mass density...
Loading historical data...
Loading historical data...
Loading historical data...
Loading historical data...
Loading historical data...
Loading historical data...
Loading historical data...
Other satellites on launch #79 in the year 2014 (2014-12-07 UTC)

Documentation

Showing up to 5 results
|